[[{"header":{"parameterUnit":"m.s-1","parameterCategory":1,"la1":30.2991,"la2":30.254,"lo1":-89.0895,"lo2":-89.0444,"dy":0.0017,"dx":0.0017,"nx":28,"ny":28,"refTime":"2024-03-12T09:00:00:Z","depth":0,"parameterNumber":2,"parameterNumberName":"U-component_of_WINDS"},"data":[0,0,0,0,0,0,0,0,0,0,0,0,0,0,0,0,0,0,0,0,0,0,0,0,0,0,0,0,0,0,0,0,0,0,0,0,0,0,0,0,0,0,0,0,0,0,0,0,0,0,0,0,0,0,0,0,0,0,0.6219,0.6219,0,0.6231,0.6231,0.6232,0.6197,0.6196,0.6195,0.6194,0.6206,0.6207,0.6208,0,0,0,0,0,0,0,0,0,0,0,0,0,0.6165,0.6167,0.6219,0.6219,0.622,0.6231,0.6231,0.6232,0.6198,0.6196,0.6195,0.6194,0.6205,0.6207,0.6208,0,0,0,0,0,0,0,0,0,0,0,0,0,0.6184,0.6167,0.6219,0.6204,0.6203,0.6231,0.6231,0.6232,0.6198,0.6196,0.6195,0.6193,0.6205,0.6207,0.6209,0.6252,0,0,0.6214,0.6215,0,0,0,0,0,0,0,0,0.6183,0.6186,0.6206,0.6205,0.6204,0.6211,0.6217,0.6238,0.6198,0.62,0.6194,0.6193,0.6209,0.621,0.6216,0.6252,0.6253,0.6215,0.6216,0.6217,0.6217,0,0,0,0,0,0,0,0.6182,0.6186,0.6224,0.6206,0.6205,0.6196,0.6197,0.6221,0.6213,0.62,0.6197,0.6199,0.6208,0.6214,0.6216,0.6253,0.6215,0.6216,0.6217,0.6218,0.6324,0.6326,0,0,0,0,0,0,0.6183,0.6185,0.6224,0.6224,0.6189,0.6198,0.6199,0.621,0.6213,0.6211,0.62,0.6197,0.6212,0.6214,0.6216,0.6266,0.6217,0.6218,0.6219,0.6323,0.6325,0.6326,0,0,0,0,0,0,0.6182,0.6187,0.6223,0.6204,0.6208,0.6201,0.6214,0.6212,0.6218,0.6213,0.6212,0.6208,0.6211,0.6214,0.6243,0.6266,0.6219,0.6221,0.6321,0.6323,0.6326,0.6367,0,0,0,0,0,0,0.618,0.6186,0.6203,0.6205,0.6209,0.625,0.6215,0.6213,0.6221,0.6218,0.622,0.6219,0.621,0.624,0.6245,0.6268,0.6222,0.6319,0.6322,0.6325,0.6363,0.637,0.6376,0,0,0,0,0,0.6179,0.6214,0.6204,0.6209,0.623,0.6252,0.6254,0.6243,0.6223,0.624,0.6237,0.6219,0.6263,0.6244,0.6249,0.6272,0.6317,0.6321,0.6325,0.636,0.6369,0.6376,0,0,0,0,0,0,0.6216,0.6214,0.6203,0.624,0.6246,0.6246,0.6266,0.6252,0.6264,0.626,0.6245,0.6245,0.6277,0.6278,0.6256,0.6314,0.6287,0.6292,0.6312,0.632,0.6327,0.6325,0.6224,0,0,0,0,0,0.6228,0.6247,0.6244,0.6277,0.6281,0.6273,0.6282,0.6273,0.6278,0.6281,0.628,0.6285,0.63,0.631,0.6324,0.6363,0.6363,0.6382,0.6389,0.6394,0.6398,0.6418,0.6426,0.6339,0.6339,0.6339,0,0,0.6254,0.6256,0.6268,0.6285,0.6288,0.6307,0.6276,0.6297,0.631,0.6284,0.6311,0.6311,0.6316,0.6351,0.6366,0.6352,0.6422,0.6399,0.6403,0.6404,0.6422,0.643,0.6438,0.6341,0.6341,0.634,0,0,0.6311,0.6315,0.6342,0.6346,0.6352,0.6346,0.6353,0.6355,0.6353,0.6381,0.6361,0.6377,0.6403,0.6407,0.6413,0.6471,0.6455,0.6476,0.6509,0.6529,0.6536,0.6541,0.6561,0.6568,0.648,0.648,0.648,0,0.6342,0.637,0.6358,0.638,0.6387,0.6365,0.6392,0.6396,0.6406,0.6412,0.6396,0.6428,0.643,0.6465,0.6479,0.6485,0.6491,0.6475,0.6536,0.6542,0.6547,0.6565,0.6573,0.6483,0.6482,0.6482,0.6482,0,0.6407,0.6427,0.6448,0.6458,0.6468,0.6493,0.6484,0.6495,0.6485,0.6481,0.6509,0.6511,0.6524,0.6531,0.6522,0.6564,0.6555,0.6538,0.651,0.6558,0.6575,0.6582,0.6486,0.6485,0.6484,0.6484,0,0,0.6487,0.649,0.6498,0.6502,0.6506,0.6521,0.6544,0.6557,0.6567,0.6574,0.6593,0.6616,0.66,0.6606,0.6597,0.6614,0.6658,0.6594,0.6594,0.6605,0.6703,0.6715,0.6724,0.6648,0.6649,0.665,0.6702,0,0.6542,0.6582,0.6571,0.6611,0.6628,0.6607,0.6627,0.6632,0.6629,0.6642,0.6639,0.6654,0.6633,0.6636,0.6653,0.6649,0.6677,0.6645,0.6664,0.6664,0.6662,0.6733,0.6745,0.6795,0.6709,0.671,0.6711,0,0.6611,0.6621,0.6662,0.6663,0.667,0.6688,0.6699,0.6713,0.6717,0.6714,0.6721,0.6708,0.673,0.6703,0.6733,0.6712,0.6719,0.6718,0.672,0.672,0.669,0.6733,0.681,0.6817,0.6722,0.6721,0.672,0,0.6663,0.6687,0.6715,0.6719,0.6721,0.6734,0.6736,0.6739,0.6747,0.6756,0.6761,0.6773,0.6779,0.6788,0.6779,0.676,0.681,0.6782,0.6806,0.6807,0.6817,0.6816,0.6894,0.6824,0.6824,0.6823,0.6823,0,0.6724,0.675,0.6738,0.6755,0.6783,0.677,0.6798,0.6797,0.68,0.6816,0.6799,0.6814,0.6801,0.6814,0.6807,0.6832,0.6835,0.6832,0.683,0.6833,0.6833,0.6836,0.6832,0.6825,0.6825,0.6824,0.6824,0,0.6787,0.678,0.6808,0.6808,0.6808,0.6829,0.6828,0.6844,0.684,0.686,0.6864,0.6857,0.6872,0.6864,0.6879,0.6874,0.6907,0.69,0.6905,0.6903,0.6927,0.6924,0.7009,0.7019,0.6943,0.6944,0.6944,0,0.6825,0.6845,0.6847,0.6856,0.6858,0.6874,0.6882,0.6871,0.688,0.6886,0.6901,0.6914,0.6925,0.695,0.6946,0.6958,0.6951,0.698,0.6952,0.6955,0.6949,0.6948,0.6949,0.6985,0.6985,0.6986,0.6987,0,0.6894,0.689,0.6903,0.6914,0.6924,0.6932,0.6939,0.6948,0.6937,0.6948,0.6963,0.6971,0.6987,0.7,0.7011,0.7011,0.6997,0.6996,0.7001,0.7004,0.7006,0.7004,0.6918,0.6993,0.6993,0.6992,0.6992,0.6992,0.6945,0.6961,0.6964,0.6979,0.6983,0.6989,0.7003,0.7001,0.7014,0.7025,0.7018,0.7036,0.704,0.7051,0.7054,0.7068,0.7056,0.7065,0.7067,0.7069,0.7072,0.7005,0.707,0.707,0.7069,0.7069,0.7069,0,0.7012,0.7013,0.7027,0.7037,0.7048,0.7034,0.7041,0.705,0.7066,0.7071,0.7082,0.7099,0.7112,0.7109,0.7121,0.7132,0.7126,0.7135,0.7134,0.7134,0.7082,0.7075,0.714,0.714,0.714,0.714,0.714,0.714,0.7048,0.7073,0.7069,0.7096,0.7097,0.7114,0.7119,0.7125,0.7128,0.7149,0.7159,0.7158,0.7159,0.7171,0.7182,0.7181,0.7185,0.7197,0.7193,0.7145,0.7138,0.7131,0.7124,0.7198,0.7198,0.7243,0.7244,0.7244]},{"header":{"parameterUnit":"m.s-1","parameterCategory":1,"la1":30.2991,"la2":30.254,"lo1":-89.0895,"lo2":-89.0444,"dy":0.0017,"dx":0.0017,"nx":28,"ny":28,"refTime":"2024-03-12T09:00:00:Z","depth":0,"parameterNumber":3,"parameterNumberName":"V-component_of_WINDS"},"data":[0,0,0,0,0,0,0,0,0,0,0,0,0,0,0,0,0,0,0,0,0,0,0,0,0,0,0,0,0,0,0,0,0,0,0,0,0,0,0,0,0,0,0,0,0,0,0,0,0,0,0,0,0,0,0,0,0,0,-0.8011,-0.8011,0,-0.8031,-0.8032,-0.8032,-0.8086,-0.8087,-0.8088,-0.8089,-0.8108,-0.8108,-0.8107,0,0,0,0,0,0,0,0,0,0,0,0,0,-0.8018,-0.8018,-0.8011,-0.8011,-0.8012,-0.8031,-0.8032,-0.8032,-0.8085,-0.8087,-0.8088,-0.809,-0.8108,-0.8108,-0.8107,0,0,0,0,0,0,0,0,0,0,0,0,0,-0.8024,-0.8018,-0.8011,-0.8041,-0.8044,-0.8031,-0.8032,-0.8032,-0.8085,-0.8087,-0.8089,-0.809,-0.8109,-0.8108,-0.8107,-0.8067,0,0,-0.8104,-0.8104,0,0,0,0,0,0,0,0,-0.8024,-0.8024,-0.8036,-0.8039,-0.8042,-0.8058,-0.8041,-0.8044,-0.8085,-0.8069,-0.8089,-0.8091,-0.809,-0.8091,-0.8091,-0.8068,-0.8069,-0.8104,-0.8104,-0.8103,-0.8103,0,0,0,0,0,0,0,-0.8023,-0.8023,-0.8019,-0.8036,-0.804,-0.8053,-0.8056,-0.8042,-0.807,-0.8071,-0.8075,-0.8077,-0.8092,-0.8091,-0.8092,-0.8069,-0.8104,-0.8104,-0.8103,-0.8103,-0.8015,-0.8013,0,0,0,0,0,0,-0.8019,-0.8023,-0.8019,-0.802,-0.8037,-0.8051,-0.8054,-0.8051,-0.807,-0.8075,-0.8075,-0.8079,-0.8092,-0.8092,-0.8092,-0.8047,-0.8103,-0.8103,-0.8102,-0.8017,-0.8015,-0.8013,0,0,0,0,0,0,-0.8019,-0.8018,-0.8018,-0.8022,-0.8023,-0.8049,-0.8045,-0.805,-0.805,-0.8073,-0.8078,-0.8069,-0.8093,-0.8094,-0.8073,-0.8048,-0.8102,-0.8101,-0.8019,-0.8016,-0.8014,-0.7955,0,0,0,0,0,0,-0.8019,-0.8018,-0.8003,-0.8022,-0.8023,-0.7998,-0.8043,-0.805,-0.8049,-0.8054,-0.8069,-0.8073,-0.8095,-0.8074,-0.8072,-0.8048,-0.8101,-0.8021,-0.8018,-0.8015,-0.796,-0.7951,-0.7944,0,0,0,0,0,-0.8019,-0.7985,-0.8002,-0.8001,-0.8005,-0.7997,-0.7997,-0.8023,-0.8046,-0.8032,-0.8047,-0.8073,-0.8052,-0.8072,-0.807,-0.8045,-0.8023,-0.8019,-0.8015,-0.7963,-0.7953,-0.7944,0,0,0,0,0,0,-0.7962,-0.7988,-0.8007,-0.7978,-0.7985,-0.8006,-0.7988,-0.8011,-0.801,-0.8015,-0.8047,-0.805,-0.8025,-0.8033,-0.8055,-0.8008,-0.8042,-0.8037,-0.8003,-0.7993,-0.7985,-0.7983,-0.81,0,0,0,0,0,-0.7946,-0.7937,-0.7961,-0.7933,-0.7936,-0.7961,-0.7958,-0.7978,-0.7986,-0.7988,-0.8002,-0.8008,-0.8003,-0.7999,-0.7995,-0.7962,-0.7966,-0.7944,-0.7936,-0.7929,-0.7924,-0.7907,-0.7898,-0.7999,-0.7999,-0.7999,0,0,-0.7913,-0.7926,-0.7919,-0.7922,-0.793,-0.792,-0.7963,-0.795,-0.7943,-0.7986,-0.7968,-0.7978,-0.7987,-0.796,-0.7949,-0.7966,-0.7898,-0.7924,-0.7918,-0.7917,-0.7902,-0.7893,-0.7884,-0.7996,-0.7997,-0.7997,0,0,-0.7848,-0.7857,-0.7835,-0.7842,-0.7853,-0.787,-0.7865,-0.7883,-0.7891,-0.7874,-0.7906,-0.7898,-0.7888,-0.7893,-0.7895,-0.7833,-0.7857,-0.7831,-0.7789,-0.7772,-0.7764,-0.7757,-0.7734,-0.7726,-0.7826,-0.7826,-0.7826,0,-0.7805,-0.7792,-0.7821,-0.7807,-0.7807,-0.7847,-0.7825,-0.783,-0.7839,-0.7838,-0.7858,-0.7847,-0.7856,-0.7831,-0.7816,-0.7816,-0.7811,-0.7829,-0.7762,-0.7756,-0.775,-0.7729,-0.772,-0.7823,-0.7823,-0.7824,-0.7824,0,-0.7739,-0.7729,-0.771,-0.7718,-0.7717,-0.7699,-0.7725,-0.772,-0.774,-0.7755,-0.7737,-0.7749,-0.7749,-0.7745,-0.7764,-0.7722,-0.7733,-0.7757,-0.7791,-0.7736,-0.7717,-0.7709,-0.7818,-0.7819,-0.782,-0.7821,0,0,-0.7636,-0.7662,-0.7655,-0.7659,-0.7675,-0.7668,-0.7652,-0.7652,-0.7647,-0.7653,-0.7639,-0.7631,-0.7654,-0.7656,-0.7676,-0.7661,-0.7611,-0.7687,-0.7688,-0.7672,-0.7565,-0.7546,-0.7536,-0.7627,-0.7626,-0.7625,-0.7565,0,-0.7574,-0.7549,-0.7575,-0.7544,-0.7535,-0.7573,-0.7559,-0.7567,-0.7581,-0.7576,-0.7591,-0.7585,-0.7616,-0.7617,-0.7604,-0.7619,-0.7589,-0.7624,-0.7615,-0.7614,-0.7611,-0.7526,-0.7506,-0.7448,-0.7557,-0.7556,-0.7555,0,-0.7498,-0.7501,-0.7468,-0.7487,-0.7484,-0.7471,-0.7474,-0.7469,-0.7479,-0.749,-0.7492,-0.7517,-0.7502,-0.7537,-0.7517,-0.754,-0.7538,-0.7545,-0.7544,-0.7543,-0.758,-0.7523,-0.7431,-0.7422,-0.7543,-0.7544,-0.7545,0,-0.7426,-0.7422,-0.7402,-0.7405,-0.7426,-0.7416,-0.7424,-0.7436,-0.7434,-0.7437,-0.7437,-0.7437,-0.7437,-0.7437,-0.7461,-0.7484,-0.7438,-0.7475,-0.7447,-0.7446,-0.7434,-0.7435,-0.734,-0.7434,-0.7435,-0.7435,-0.7435,0,-0.7354,-0.7332,-0.737,-0.7357,-0.7335,-0.7366,-0.7343,-0.7355,-0.7365,-0.7356,-0.7389,-0.7379,-0.7413,-0.7406,-0.7425,-0.7406,-0.7406,-0.7414,-0.7419,-0.7411,-0.741,-0.7409,-0.7413,-0.7432,-0.7433,-0.7433,-0.7434,0,-0.7269,-0.7293,-0.7274,-0.7296,-0.7301,-0.7283,-0.7302,-0.7292,-0.7308,-0.7296,-0.7295,-0.7321,-0.7316,-0.734,-0.7339,-0.7352,-0.7323,-0.7335,-0.7319,-0.7323,-0.7293,-0.7295,-0.7194,-0.7182,-0.7285,-0.7284,-0.7283,0,-0.722,-0.7205,-0.7226,-0.7222,-0.7229,-0.7222,-0.7222,-0.7252,-0.725,-0.7261,-0.7249,-0.7246,-0.7246,-0.7236,-0.7254,-0.7254,-0.7266,-0.723,-0.7266,-0.7258,-0.7264,-0.7265,-0.7263,-0.7222,-0.7221,-0.722,-0.7219,0,-0.7131,-0.7145,-0.7143,-0.7145,-0.7143,-0.7146,-0.7152,-0.7147,-0.7179,-0.7175,-0.7171,-0.717,-0.717,-0.7167,-0.717,-0.7179,-0.7204,-0.7208,-0.7202,-0.7192,-0.7183,-0.7187,-0.7298,-0.721,-0.7211,-0.7212,-0.7212,-0.7213,-0.7063,-0.7051,-0.7064,-0.7061,-0.7068,-0.7073,-0.7064,-0.708,-0.7077,-0.7079,-0.7097,-0.7089,-0.71,-0.7108,-0.7114,-0.7108,-0.7124,-0.7115,-0.7112,-0.7109,-0.7104,-0.7185,-0.7109,-0.7109,-0.7109,-0.7109,-0.711,0,-0.6975,-0.6986,-0.6983,-0.699,-0.6987,-0.7013,-0.702,-0.7016,-0.7009,-0.7017,-0.7016,-0.7011,-0.7009,-0.7028,-0.7028,-0.7019,-0.7031,-0.7018,-0.7019,-0.702,-0.7089,-0.7095,-0.7009,-0.7009,-0.7009,-0.7009,-0.7009,-0.7009,-0.6929,-0.6911,-0.6926,-0.6911,-0.6922,-0.6915,-0.6917,-0.6921,-0.6928,-0.6921,-0.692,-0.6932,-0.6945,-0.6947,-0.6946,-0.6951,-0.6949,-0.6933,-0.6942,-0.7006,-0.7015,-0.7025,-0.703,-0.6932,-0.6932,-0.6874,-0.6873,-0.6873]}]]